| time (UTC) | temp F | wind direction | speed MPH | gust MPH | rain 1hr in | rain 24hr in | rain mn in | humidity % | barometer mb |
| 20260505050552 | 54 | 173 | 0.0 | 0.0 | 0.00 | 0.00 | 0.00 | 75 | 1011.0 |
| 20260505041553 | 55 | 0 | 0.0 | 0.0 | 0.00 | 0.00 | 0.00 | 70 | 1011.0 |
| 20260505041057 | 55 | 0 | 0.0 | 0.0 | 0.00 | 0.00 | 0.00 | 70 | 1011.0 |
| 20260505040553 | 55 | 56 | 0.0 | 0.0 | 0.00 | 0.00 | 0.00 | 70 | 1011.0 |
| 20260505040056 | 55 | 218 | 0.0 | 0.0 | 0.00 | 0.00 | 0.00 | 70 | 1011.0 |
| 20260505035553 | 55 | 208 | 1.0 | 1.0 | 0.00 | 0.00 | 0.00 | 70 | 1011.0 |
| 20260505035055 | 55 | 260 | 0.0 | 1.0 | 0.00 | 0.00 | 0.00 | 69 | 1011.0 |
| 20260505034552 | 55 | 0 | 0.0 | 0.0 | 0.00 | 0.00 | 0.00 | 68 | 1011.0 |
| 20260505034054 | 56 | 197 | 0.0 | 1.0 | 0.00 | 0.00 | 0.00 | 67 | 1011.0 |
| 20260505033552 | 56 | 220 | 0.0 | 1.0 | 0.00 | 0.00 | 0.00 | 67 | 1011.0 |
| 20260505033053 | 56 | 0 | 0.0 | 0.0 | 0.00 | 0.00 | 0.00 | 66 | 1011.0 |
| 20260505032553 | 56 | 0 | 0.0 | 0.0 | 0.00 | 0.00 | 0.00 | 65 | 1011.0 |
| 20260505032056 | 57 | 0 | 0.0 | 0.0 | 0.00 | 0.00 | 0.00 | 66 | 1011.0 |
| 20260505031553 | 57 | 265 | 0.0 | 0.0 | 0.00 | 0.00 | 0.00 | 64 | 1011.0 |
| 20260505031053 | 58 | 257 | 0.0 | 0.0 | 0.00 | 0.00 | 0.00 | 64 | 1011.0 |
| 20260505030553 | 58 | 210 | 0.0 | 1.0 | 0.00 | 0.00 | 0.00 | 63 | 1011.0 |
| 20260505030053 | 58 | 0 | 0.0 | 0.0 | 0.00 | 0.00 | 0.00 | 61 | 1011.0 |
| 20260505025552 | 58 | 225 | 1.0 | 1.0 | 0.00 | 0.00 | 0.00 | 62 | 1011.0 |
| 20260505025055 | 58 | 259 | 1.0 | 1.0 | 0.00 | 0.00 | 0.00 | 60 | 1011.0 |
| 20260505024553 | 58 | 16 | 0.0 | 1.0 | 0.00 | 0.00 | 0.00 | 59 | 1011.0 |
| 20260505024053 | 58 | 0 | 0.0 | 0.0 | 0.00 | 0.00 | 0.00 | 60 | 1011.0 |
| 20260505023553 | 58 | 248 | 0.0 | 1.0 | 0.00 | 0.00 | 0.00 | 59 | 1011.0 |
| 20260505023052 | 58 | 0 | 0.0 | 0.0 | 0.00 | 0.00 | 0.00 | 58 | 1011.0 |
| 20260505022552 | 57 | 231 | 0.0 | 1.0 | 0.00 | 0.00 | 0.00 | 61 | 1011.0 |
| 20260505022052 | 57 | 186 | 0.0 | 1.0 | 0.00 | 0.00 | 0.00 | 62 | 1011.0 |
| 20260505021556 | 57 | 0 | 0.0 | 0.0 | 0.00 | 0.00 | 0.00 | 63 | 1011.0 |
| 20260505021053 | 57 | 250 | 0.0 | 2.0 | 0.00 | 0.00 | 0.00 | 62 | 1011.0 |
| 20260505020553 | 57 | 232 | 1.0 | 2.0 | 0.00 | 0.00 | 0.00 | 64 | 1011.0 |
| 20260505020052 | 57 | 0 | 0.0 | 0.0 | 0.00 | 0.00 | 0.00 | 64 | 1011.0 |
| 20260505015553 | 57 | 140 | 0.0 | 0.0 | 0.00 | 0.00 | 0.00 | 63 | 1011.0 |
| 20260505015052 | 58 | 0 | 0.0 | 0.0 | 0.00 | 0.00 | 0.00 | 65 | 1011.0 |
| 20260505014553 | 58 | 262 | 0.0 | 2.0 | 0.00 | 0.00 | 0.00 | 64 | 1011.0 |
| 20260505014055 | 58 | 205 | 0.0 | 1.0 | 0.00 | 0.00 | 0.00 | 63 | 1011.0 |
| 20260505013553 | 58 | 271 | 0.0 | 2.0 | 0.00 | 0.00 | 0.00 | 63 | 1011.0 |
| 20260505013053 | 58 | 249 | 0.0 | 1.0 | 0.00 | 0.00 | 0.00 | 63 | 1011.0 |
| 20260505012554 | 59 | 0 | 0.0 | 0.0 | 0.00 | 0.00 | 0.00 | 62 | 1011.0 |
| 20260505012052 | 59 | 210 | 0.0 | 1.0 | 0.00 | 0.00 | 0.00 | 62 | 1011.0 |
| 20260505011554 | 59 | 291 | 0.0 | 1.0 | 0.00 | 0.00 | 0.00 | 62 | 1011.0 |
| 20260505011054 | 60 | 22 | 0.0 | 1.0 | 0.00 | 0.00 | 0.00 | 60 | 1010.0 |
| 20260505010552 | 60 | 217 | 1.0 | 2.0 | 0.00 | 0.00 | 0.00 | 59 | 1010.0 |
| 20260505010053 | 61 | 249 | 0.0 | 0.0 | 0.00 | 0.00 | 0.00 | 58 | 1010.0 |
| 20260505005552 | 61 | 0 | 0.0 | 0.0 | 0.00 | 0.00 | 0.00 | 56 | 1010.0 |
| 20260505005052 | 62 | 233 | 0.0 | 1.0 | 0.00 | 0.00 | 0.00 | 56 | 1010.0 |
| 20260505004553 | 62 | 253 | 0.0 | 1.0 | 0.00 | 0.00 | 0.00 | 55 | 1010.0 |
| 20260505004055 | 63 | 0 | 0.0 | 0.0 | 0.00 | 0.00 | 0.00 | 51 | 1010.0 |
| 20260505003552 | 64 | 0 | 0.0 | 0.0 | 0.00 | 0.00 | 0.00 | 49 | 1010.0 |
| 20260505003054 | 64 | 208 | 0.0 | 2.0 | 0.00 | 0.00 | 0.00 | 49 | 1010.0 |
| 20260505002552 | 65 | 0 | 0.0 | 0.0 | 0.00 | 0.00 | 0.00 | 47 | 1010.0 |
| 20260505002053 | 65 | 82 | 0.0 | 1.0 | 0.00 | 0.00 | 0.00 | 45 | 1010.0 |
| 20260505001553 | 66 | 309 | 0.0 | 0.0 | 0.00 | 0.00 | 0.00 | 45 | 1010.0 |
| 20260505001053 | 66 | 0 | 0.0 | 0.0 | 0.00 | 0.00 | 0.00 | 44 | 1010.0 |
| 20260505000553 | 66 | 86 | 0.0 | 1.0 | 0.00 | 0.00 | 0.00 | 44 | 1010.0 |
| 20260505000053 | 67 | 178 | 0.0 | 1.0 | 0.00 | 0.00 | 0.00 | 43 | 1010.0 |
| 20260504235553 | 67 | 276 | 0.0 | 2.0 | 0.00 | 0.00 | 0.00 | 42 | 1010.0 |
| 20260504235052 | 67 | 283 | 0.0 | 1.0 | 0.00 | 0.00 | 0.00 | 43 | 1010.0 |
| 20260504234552 | 67 | 263 | 0.0 | 2.0 | 0.00 | 0.00 | 0.00 | 42 | 1009.0 |
| 20260504234053 | 68 | 281 | 1.0 | 2.0 | 0.00 | 0.00 | 0.00 | 41 | 1009.0 |
| 20260504233552 | 68 | 222 | 1.0 | 2.0 | 0.00 | 0.00 | 0.00 | 41 | 1009.0 |
| 20260504233053 | 68 | 327 | 1.0 | 1.0 | 0.00 | 0.00 | 0.00 | 40 | 1009.0 |
| 20260504232552 | 69 | 261 | 1.0 | 2.0 | 0.00 | 0.00 | 0.00 | 40 | 1009.0 |
| 20260504232056 | 69 | 264 | 1.0 | 2.0 | 0.00 | 0.00 | 0.00 | 40 | 1009.0 |
| 20260504231555 | 69 | 238 | 1.0 | 2.0 | 0.00 | 0.00 | 0.00 | 40 | 1009.0 |
| 20260504231059 | 69 | 93 | 1.0 | 2.0 | 0.00 | 0.00 | 0.00 | 41 | 1009.0 |
| 20260504230553 | 70 | 210 | 1.0 | 2.0 | 0.00 | 0.00 | 0.00 | 40 | 1009.0 |
| 20260504230054 | 70 | 197 | 0.0 | 1.0 | 0.00 | 0.00 | 0.00 | 40 | 1009.0 |
| 20260504225552 | 70 | 237 | 1.0 | 3.0 | 0.00 | 0.00 | 0.00 | 39 | 1009.0 |
| 20260504225057 | 70 | 223 | 2.0 | 4.0 | 0.00 | 0.00 | 0.00 | 39 | 1009.0 |
| 20260504224552 | 70 | 208 | 3.0 | 7.0 | 0.00 | 0.00 | 0.00 | 38 | 1009.0 |
| 20260504224052 | 70 | 193 | 1.0 | 2.0 | 0.00 | 0.00 | 0.00 | 39 | 1009.0 |
| 20260504223553 | 71 | 235 | 1.0 | 2.0 | 0.00 | 0.00 | 0.00 | 38 | 1009.0 |
| 20260504223053 | 71 | 217 | 2.0 | 3.0 | 0.00 | 0.00 | 0.00 | 38 | 1009.0 |
| 20260504222555 | 71 | 222 | 3.0 | 4.0 | 0.00 | 0.00 | 0.00 | 37 | 1009.0 |
| 20260504222054 | 71 | 308 | 1.0 | 2.0 | 0.00 | 0.00 | 0.00 | 38 | 1009.0 |
| 20260504221552 | 72 | 209 | 2.0 | 3.0 | 0.00 | 0.00 | 0.00 | 37 | 1009.0 |
| 20260504221053 | 72 | 218 | 1.0 | 3.0 | 0.00 | 0.00 | 0.00 | 37 | 1009.0 |
| 20260504220553 | 72 | 175 | 2.0 | 4.0 | 0.00 | 0.00 | 0.00 | 36 | 1009.0 |
| 20260504220054 | 73 | 216 | 2.0 | 2.0 | 0.00 | 0.00 | 0.00 | 36 | 1009.0 |
| 20260504215554 | 73 | 203 | 3.0 | 5.0 | 0.00 | 0.00 | 0.00 | 35 | 1009.0 |
| 20260504215054 | 73 | 320 | 1.0 | 2.0 | 0.00 | 0.00 | 0.00 | 36 | 1009.0 |
| 20260504214553 | 73 | 301 | 1.0 | 2.0 | 0.00 | 0.00 | 0.00 | 35 | 1009.0 |
| 20260504214053 | 73 | 290 | 1.0 | 2.0 | 0.00 | 0.00 | 0.00 | 36 | 1009.0 |
| 20260504213555 | 73 | 268 | 2.0 | 3.0 | 0.00 | 0.00 | 0.00 | 37 | 1009.0 |
| 20260504213055 | 73 | 224 | 2.0 | 3.0 | 0.00 | 0.00 | 0.00 | 36 | 1009.0 |
| 20260504212555 | 73 | 277 | 2.0 | 3.0 | 0.00 | 0.00 | 0.00 | 36 | 1009.0 |
| 20260504212056 | 73 | 185 | 2.0 | 3.0 | 0.00 | 0.00 | 0.00 | 35 | 1009.0 |
| 20260504211553 | 73 | 272 | 2.0 | 4.0 | 0.00 | 0.00 | 0.00 | 36 | 1009.0 |
| 20260504211056 | 73 | 204 | 1.0 | 2.0 | 0.00 | 0.00 | 0.00 | 36 | 1009.0 |
| 20260504210554 | 74 | 332 | 1.0 | 2.0 | 0.00 | 0.00 | 0.00 | 35 | 1010.0 |
| 20260504205554 | 74 | 46 | 0.0 | 2.0 | 0.00 | 0.00 | 0.00 | 36 | 1009.0 |
| 20260504205052 | 73 | 272 | 2.0 | 5.0 | 0.00 | 0.00 | 0.00 | 35 | 1009.0 |
| 20260504204552 | 73 | 314 | 1.0 | 2.0 | 0.00 | 0.00 | 0.00 | 36 | 1009.0 |
| 20260504204053 | 73 | 222 | 2.0 | 4.0 | 0.00 | 0.00 | 0.00 | 36 | 1009.0 |
| 20260504203553 | 72 | 293 | 2.0 | 5.0 | 0.00 | 0.00 | 0.00 | 36 | 1009.0 |
| 20260504203053 | 73 | 220 | 3.0 | 7.0 | 0.00 | 0.00 | 0.00 | 35 | 1009.0 |
| 20260504202554 | 73 | 208 | 2.0 | 4.0 | 0.00 | 0.00 | 0.00 | 35 | 1009.0 |
| 20260504202053 | 72 | 193 | 1.0 | 2.0 | 0.00 | 0.00 | 0.00 | 35 | 1009.0 |
| 20260504201553 | 72 | 305 | 2.0 | 4.0 | 0.00 | 0.00 | 0.00 | 37 | 1010.0 |
| 20260504201054 | 73 | 197 | 3.0 | 11.0 | 0.00 | 0.00 | 0.00 | 35 | 1009.0 |
| 20260504200554 | 73 | 176 | 2.0 | 3.0 | 0.00 | 0.00 | 0.00 | 35 | 1010.0 |
| 20260504200055 | 73 | 246 | 2.0 | 4.0 | 0.00 | 0.00 | 0.00 | 34 | 1010.0 |
| 20260504195555 | 73 | 287 | 2.0 | 3.0 | 0.00 | 0.00 | 0.00 | 36 | 1010.0 |
| 20260504195054 | 72 | 235 | 2.0 | 3.0 | 0.00 | 0.00 | 0.00 | 36 | 1010.0 |
| 20260504194555 | 72 | 325 | 2.0 | 3.0 | 0.00 | 0.00 | 0.00 | 36 | 1010.0 |
| 20260504194053 | 72 | 343 | 1.0 | 3.0 | 0.00 | 0.00 | 0.00 | 34 | 1010.0 |
| 20260504193554 | 72 | 211 | 2.0 | 4.0 | 0.00 | 0.00 | 0.00 | 36 | 1010.0 |
| 20260504193054 | 71 | 323 | 2.0 | 3.0 | 0.00 | 0.00 | 0.00 | 36 | 1010.0 |
| 20260504192553 | 71 | 247 | 2.0 | 3.0 | 0.00 | 0.00 | 0.00 | 36 | 1010.0 |
| 20260504192052 | 71 | 202 | 1.0 | 2.0 | 0.00 | 0.00 | 0.00 | 37 | 1010.0 |
| 20260504191554 | 71 | 194 | 3.0 | 7.0 | 0.00 | 0.00 | 0.00 | 35 | 1010.0 |
| 20260504191055 | 71 | 228 | 2.0 | 3.0 | 0.00 | 0.00 | 0.00 | 36 | 1010.0 |
| 20260504190553 | 71 | 191 | 4.0 | 7.0 | 0.00 | 0.00 | 0.00 | 37 | 1010.0 |
| 20260504190053 | 71 | 194 | 3.0 | 5.0 | 0.00 | 0.00 | 0.00 | 36 | 1010.0 |
| 20260504185556 | 72 | 287 | 2.0 | 4.0 | 0.00 | 0.00 | 0.00 | 37 | 1010.0 |
| 20260504185052 | 71 | 235 | 1.0 | 2.0 | 0.00 | 0.00 | 0.00 | 38 | 1010.0 |
| 20260504184555 | 71 | 214 | 3.0 | 4.0 | 0.00 | 0.00 | 0.00 | 37 | 1010.0 |
| 20260504184055 | 71 | 258 | 1.0 | 2.0 | 0.00 | 0.00 | 0.00 | 37 | 1010.0 |
| 20260504183558 | 71 | 229 | 3.0 | 5.0 | 0.00 | 0.00 | 0.00 | 35 | 1010.0 |
| 20260504183054 | 71 | 204 | 2.0 | 4.0 | 0.00 | 0.00 | 0.00 | 35 | 1010.0 |
| 20260504182555 | 70 | 199 | 1.0 | 2.0 | 0.00 | 0.00 | 0.00 | 36 | 1010.0 |
| 20260504182100 | 70 | 238 | 3.0 | 7.0 | 0.00 | 0.00 | 0.00 | 37 | 1011.0 |
| 20260504181554 | 70 | 244 | 2.0 | 4.0 | 0.00 | 0.00 | 0.00 | 38 | 1011.0 |
| 20260504181055 | 70 | 246 | 2.0 | 4.0 | 0.00 | 0.00 | 0.00 | 37 | 1011.0 |
| 20260504180556 | 70 | 334 | 2.0 | 3.0 | 0.00 | 0.00 | 0.00 | 37 | 1011.0 |
| 20260504180055 | 70 | 325 | 2.0 | 3.0 | 0.00 | 0.00 | 0.00 | 38 | 1011.0 |
| 20260504175555 | 69 | 142 | 2.0 | 6.0 | 0.00 | 0.00 | 0.00 | 38 | 1011.0 |
| 20260504175054 | 69 | 223 | 2.0 | 5.0 | 0.00 | 0.00 | 0.00 | 37 | 1011.0 |
| 20260504174555 | 69 | 199 | 2.0 | 3.0 | 0.00 | 0.00 | 0.00 | 38 | 1011.0 |
| 20260504174055 | 69 | 206 | 2.0 | 4.0 | 0.00 | 0.00 | 0.00 | 38 | 1011.0 |
| 20260504173554 | 69 | 249 | 2.0 | 3.0 | 0.00 | 0.00 | 0.00 | 38 | 1011.0 |
| 20260504173055 | 69 | 180 | 4.0 | 5.0 | 0.00 | 0.00 | 0.00 | 37 | 1011.0 |
| 20260504172558 | 69 | 153 | 3.0 | 5.0 | 0.00 | 0.00 | 0.00 | 39 | 1011.0 |
| 20260504172055 | 68 | 180 | 2.0 | 3.0 | 0.00 | 0.00 | 0.00 | 39 | 1011.0 |
| 20260504171554 | 68 | 202 | 3.0 | 4.0 | 0.00 | 0.00 | 0.00 | 39 | 1011.0 |
| 20260504171054 | 68 | 347 | 2.0 | 4.0 | 0.00 | 0.00 | 0.00 | 40 | 1011.0 |
| 20260504170554 | 67 | 329 | 1.0 | 3.0 | 0.00 | 0.00 | 0.00 | 40 | 1011.0 |
| 20260504151055 | 65 | 338 | 3.0 | 4.0 | 0.00 | 0.00 | 0.00 | 41 | 1013.0 |
| 20260504150555 | 65 | 223 | 2.0 | 4.0 | 0.00 | 0.00 | 0.00 | 40 | 1013.0 |
| 20260504141055 | 61 | 246 | 2.0 | 4.0 | 0.00 | 0.00 | 0.00 | 47 | 1013.0 |
| 20260504140557 | 61 | 188 | 3.0 | 6.0 | 0.00 | 0.00 | 0.00 | 48 | 1013.0 |
| 20260504130555 | 56 | 217 | 1.0 | 2.0 | 0.00 | 0.00 | 0.00 | 53 | 1014.0 |
| 20260504110553 | 40 | 237 | 2.0 | 2.0 | 0.00 | 0.00 | 0.00 | 78 | 1014.0 |
| 20260504100553 | 39 | 154 | 0.0 | 0.0 | 0.00 | 0.00 | 0.00 | 83 | 1014.0 |
| 20260504081553 | 41 | 271 | 2.0 | 3.0 | 0.00 | 0.00 | 0.00 | 80 | 1014.0 |
| 20260504081052 | 41 | 260 | 2.0 | 2.0 | 0.00 | 0.00 | 0.00 | 80 | 1014.0 |
| 20260504080552 | 41 | 256 | 1.0 | 2.0 | 0.00 | 0.00 | 0.00 | 80 | 1014.0 |